This is the latest recevied weather packets stored in our database for station/object SP2WPY-13. If no packets are shown the sender has not sent any weather packets the latest 1 day(s).
| Time | Temp. | Humidity | Pressure | Rain* | Wind** | Luminosity | Snow |
|---|---|---|---|---|---|---|---|
| 1777956666 | 12.22° C | 80% | 1013.9 hPa | - | 1.79 m/s, 252° | - | - |
| 1777956392 | 11.67° C | 82% | 1013.9 hPa | - | 1.79 m/s, 280° | - | - |
| 1777956072 | 11.67° C | 82% | 1014 hPa | - | 2.24 m/s, 263° | - | - |
| 1777955799 | 11.11° C | 84% | 1013.9 hPa | - | 1.79 m/s, 263° | - | - |
| 1777955479 | 11.11° C | 84% | 1013.9 hPa | - | 2.24 m/s, 262° | - | - |
| 1777955205 | 11.11° C | 87% | 1014 hPa | - | 1.79 m/s, 299° | - | - |
| 1777954885 | 11.11° C | 86% | 1014 hPa | - | 2.68 m/s, 252° | - | - |
| 1777954566 | 10.56° C | 87% | 1014 hPa | - | 2.24 m/s, 257° | - | - |
| 1777954291 | 10.56° C | 89% | 1014 hPa | - | 2.68 m/s, 253° | - | - |
| 1777953972 | 10° C | 90% | 1014 hPa | - | 2.24 m/s, 252° | - | - |
| 1777953697 | 10° C | 91% | 1014.1 hPa | - | 2.24 m/s, 257° | - | - |
| 1777953378 | 10° C | 93% | 1014.1 hPa | - | 3.13 m/s, 254° | - | - |
| 1777953104 | 9.44° C | 94% | 1014.1 hPa | - | 2.68 m/s, 259° | - | - |
| 1777952784 | 9.44° C | 95% | 1014.1 hPa | - | 3.13 m/s, 261° | - | - |
| 1777952464 | 9.44° C | 96% | 1014 hPa | - | 3.13 m/s, 264° | - | - |
| 1777952191 | 9.44° C | 97% | 1014 hPa | - | 3.13 m/s, 258° | - | - |
| 1777951871 | 8.89° C | 98% | 1013.9 hPa | - | 2.68 m/s, 257° | - | - |
| 1777951596 | 8.89° C | 100% | 1013.9 hPa | - | 2.68 m/s, 267° | - | - |
| 1777951277 | 8.89° C | 100% | 1013.9 hPa | - | 3.13 m/s, 268° | - | - |
| 1777951003 | 8.89° C | 100% | 1013.8 hPa | - | 2.68 m/s, 255° | - | - |
| 1777950683 | 8.89° C | 100% | 1013.9 hPa | - | 2.24 m/s, 264° | - | - |
| 1777950364 | 8.33° C | 100% | 1013.8 hPa | - | 1.79 m/s, 265° | - | - |
| 1777950089 | 8.33° C | 100% | 1013.9 hPa | - | 2.68 m/s, 261° | - | - |
| 1777949770 | 8.33° C | 100% | 1013.9 hPa | - | 4.02 m/s, 263° | - | - |
| 1777949495 | 8.33° C | 100% | 1013.9 hPa | - | 3.58 m/s, 264° | - | - |
* Rain since midnight (hover to see other rain measurements)
** Current wind speed in m/s (hover to see current wind gust speed)